This demonstration page uses our WeatherBlox Daily Observations layout. Learn more.

38.89511, -77.03637

Hourly Observations for March 11, 2015

Temp ( °F °C ) Dew Point ( °F °C ) Humidity (%) Winds ( mph kmh ) Pressure ( in mb ) Visibility ( mi km ) Precip ( " mm )
12:21 am 00:21 Cloudy with Light Rain 46 8 43 6 87 87 S 7 11 30 1016 2 3.218688 0.01 0.254
12:26 am 00:26 Cloudy with Light Rain 46 8 43 6 87 87 SSW 7 11 30 1016 2 3.218688 0 0
12:41 am 00:41 Cloudy with Light Rain 48 9 45 7 87 87 S 5 7 30 1016 1.75 2.816352 0.02 0.508
12:52 am 00:52 Cloudy with Mist and Fog 48 9 45 7 87 87 S 5 7 29.97 1015 1.75 2.816352 0.02 0.508
1:05 am 01:05 Cloudy with Fog 46 8 45 7 93 93 Calm 30 1016 2 3.218688 0 0
1:39 am 01:39 Cloudy with Fog 46 8 43 6 87 87 Calm 30 1016 3 4.828032 0 0
1:52 am 01:52 Cloudy with Mist and Fog 46 8 45 7 93 93 Calm 29.97 1015 3 4.828032 0 0
2:20 am 02:20 Cloudy with Light Rain 46 8 43 6 87 87 Calm 30 1016 3 4.828032 0 0
2:52 am 02:52 Cloudy with Mist and Fog 48 9 45 7 87 87 NNW 3 6 30 1016 4 6.437376 0.001 0.001
3:21 am 03:21 Cloudy with Mist and Fog 48 9 45 7 87 87 NNW 5 7 30 1016 5 8.04672 0 0
3:52 am 03:52 Cloudy with Mist and Fog 48 9 45 7 87 87 NW 5 7 30 1016 6 9.656064 0 0
4:52 am 04:52 Mostly Cloudy with Mist and Fog 48 9 45 7 87 87 Calm 29.97 1015 4 6.437376 0 0
4:55 am 04:55 Mostly Cloudy with Mist and Fog 48 9 45 7 87 87 Calm 29.97 1015 1.5 2.414016 0 0
5:03 am 05:03 Cloudy with Fog 46 8 45 7 93 93 Calm 29.97 1015 5 8.04672 0 0
5:52 am 05:52 Cloudy with Light Rain 46 8 43 6 87 87 Calm 30 1016 5 8.04672 0.001 0.001
6:52 am 06:52 Cloudy with Mist and Fog 48 9 45 7 87 87 NE 5 7 30.03 1017 5 8.04672 0.001 0.001
7:52 am 07:52 Cloudy with Haze 48 9 45 7 87 87 NNE 5 7 30.03 1017 6 9.656064 0 0
8:52 am 08:52 Cloudy with Haze 48 9 45 7 87 87 N 6 9 30.06 1018 5 8.04672 0 0
9:52 am 09:52 Cloudy 54 12 46 8 77 77 NNW 8 13 30.09 1019 10 16.09344 0 0
10:52 am 10:52 Cloudy 54 12 46 8 77 77 NNW 8 13 30.09 1019 10 16.09344 0 0
11:41 am 11:41 Cloudy with Light Rain 55 13 46 8 72 72 N 6 9 30.09 1019 10 16.09344 0.001 0.001
11:52 am 11:52 Cloudy 57 14 46 8 67 67 N 7 11 30.09 1019 10 16.09344 0.001 0.001
12:52 pm 12:52 Cloudy 57 14 48 9 72 72 N 7 11 30.09 1019 10 16.09344 0.001 0.001
1:52 pm 13:52 Cloudy 63 17 48 9 59 59 NNW 14 22 30.09 1019 10 16.09344 0 0
2:52 pm 14:52 Cloudy 64 18 46 8 52 52 NW 10 17 30.09 1019 10 16.09344 0 0
3:52 pm 15:52 Cloudy 66 19 43 6 43 43 W 7 11 30.06 1018 10 16.09344 0 0
4:52 pm 16:52 Sunny 66 19 43 6 43 43 N 7 11 30.09 1019 10 16.09344 0 0
5:52 pm 17:52 Mostly Cloudy 66 19 41 5 40 40 NW 7 11 30.09 1019 10 16.09344 0 0
6:52 pm 18:52 Mostly Cloudy 64 18 43 6 46 46 WNW 3 6 30.09 1019 10 16.09344 0 0
7:52 pm 19:52 Partly Cloudy 57 14 41 5 55 55 S 3 6 30.12 1020 10 16.09344 0 0
8:52 pm 20:52 Clear 54 12 46 8 77 77 S 6 9 30.15 1021 10 16.09344 0 0
9:52 pm 21:52 Clear 54 12 43 6 67 67 NNW 7 11 30.18 1022 10 16.09344 0 0
10:52 pm 22:52 Clear 55 13 37 3 51 51 NNW 9 15 30.24 1024 10 16.09344 0 0
11:52 pm 23:52 Clear 54 12 30 -1 41 41 NW 15 24 30.24 1024 10 16.09344 0 0

Powered by AerisWeather